{"data":{"norad_id":63754,"epoch":"2026-09-20T19:42:29.803392Z","epoch_age_seconds":121938,"freshness":"FRESH","line1":"1 63754U 25089D   26263.82117828  .00129090  00000+0  99177-3 0  9991","line2":"2 63754  43.0033 196.1444 0003240 301.0096  59.0454 15.70889194 80879","mean_motion":15.70889194,"eccentricity":0.000324,"inclination_deg":43.0033,"raan_deg":196.1444,"arg_perigee_deg":301.0096,"mean_anomaly_deg":59.0454,"bstar":0.00099177,"rev_number":8087,"period_min":91.667827718217,"perigee_km":354.1724843462,"apogee_km":358.53643481201,"semimajor_km":6734.4914595791,"source":"CELESTRAK","updated_at":"2026-09-21T09:00:35.093044Z"}}